Weather History for EGPF - March, 2014

Change the Weather History Date:

Monday, March 3, 2014

  Actual Average Record
Temperature  
Mean Temperature 40 °F -  
Max Temperature 48 °F 48 °F 51 °F (2012)
Min Temperature 32 °F 34 °F 21 °F (2006)
Degree Days  
Heating Degree Days 25    
Moisture  
Dew Point 35 °F    
Average Humidity 86    
Maximum Humidity 100    
Minimum Humidity 62    
Precipitation  
Precipitation 0.00 in - - ()
Sea Level Pressure  
Sea Level Pressure 29.06 in    
Wind  
Wind Speed 5 mph ()    
Max Wind Speed 14 mph    
Max Gust Speed -    
Visibility 6.2 miles    
Events Rain    
Averages and records for this station are not official NWS values.
T = Trace of Precipitation, MM = Missing Value Source: Averaged Metar Reports

Daily Weather History Graph

Daily Weather History Graph

Search for Another Location

Airport or City:

Trip Planner

Search our weather history database for the weather conditions in past years. The results will help you decide how hot, cold, wet, or windy it might be!

Date:

Astronomy

Mar. 03, 2014 Rise Set
Actual Time 7:04 AM GMT 5:56 PM GMT
Civil Twilight 6:27 AM GMT 6:33 PM GMT
Nautical Twilight 5:44 AM GMT 7:16 PM GMT
Astronomical Twilight 5:01 AM GMT 7:59 PM GMT
Moon 7:33 AM GMT (3/3) 9:20 PM GMT (3/3)
Length of Visible Light 12h 06m
Length of Day
10h 51m
Waxing Crescent, 6% of the Moon is Illuminated
Mar 3
Waxing Crescent
Mar 8
First Quarter
Mar 16
Full
Mar 24
Last Quarter
Mar 30
New

Hourly Weather History & Observations

Time (GMT) Temp. Windchill Dew Point Humidity Pressure Visibility Wind Dir Wind Speed Gust Speed Precip Events Conditions
12:20 AM 39.2 °F 35.9 °F 37.4 °F 93% 28.82 in 6.2 mi WSW 4.6 mph - N/A   Scattered Clouds
12:50 AM 39.2 °F 37.0 °F 37.4 °F 93% 28.82 in 6.2 mi West 3.5 mph - N/A   Partly Cloudy
1:20 AM 35.6 °F 32.8 °F 35.6 °F 100% 28.82 in 6.2 mi West 3.5 mph - N/A   Mostly Cloudy
1:50 AM 37.4 °F - 35.6 °F 93% 28.82 in 6.2 mi Calm Calm - N/A   Mostly Cloudy
2:20 AM 37.4 °F 34.9 °F 35.6 °F 93% 28.82 in 6.2 mi Variable 3.5 mph - N/A   Mostly Cloudy
2:50 AM 35.6 °F 31.7 °F 35.6 °F 100% 28.85 in 6.2 mi SW 4.6 mph - N/A   Scattered Clouds
3:20 AM 35.6 °F 30.7 °F 35.6 °F 100% 28.85 in 6.2 mi WSW 5.8 mph - N/A   Mostly Cloudy
3:50 AM 33.8 °F 27.7 °F 32.0 °F 93% 28.85 in 6.2 mi SW 6.9 mph - N/A   Partly Cloudy
4:20 AM 33.8 °F 27.7 °F 33.8 °F 100% 28.88 in - SW 6.9 mph - N/A   Clear
4:50 AM 35.6 °F 31.7 °F 33.8 °F 93% 28.88 in - West 4.6 mph - N/A   Clear
5:20 AM 35.6 °F 32.8 °F 35.6 °F 100% 28.88 in - West 3.5 mph - N/A   Clear
5:50 AM 32.0 °F 25.6 °F 32.0 °F 100% 28.91 in - SW 6.9 mph - N/A   Clear
6:20 AM 32.0 °F 28.7 °F 30.2 °F 93% 28.91 in - West 3.5 mph - N/A   Clear
6:50 AM 32.0 °F 27.5 °F 30.2 °F 93% 28.94 in - West 4.6 mph - N/A   Clear
7:20 AM 33.8 °F - 32.0 °F 93% 28.94 in - Calm Calm - N/A   Clear
7:50 AM 32.0 °F 26.4 °F 32.0 °F 100% 28.97 in - SW 5.8 mph - N/A   Clear
8:20 AM 33.8 °F 28.6 °F 33.8 °F 100% 28.97 in - SW 5.8 mph - N/A   Clear
8:50 AM 37.4 °F - 35.6 °F 93% 29.00 in 6.2 mi WSW 2.3 mph - N/A   Partly Cloudy
9:20 AM 39.2 °F 37.0 °F 37.4 °F 93% 29.00 in 6.2 mi Variable 3.5 mph - N/A   Partly Cloudy
9:50 AM 41.0 °F 39.0 °F 37.4 °F 87% 29.03 in 6.2 mi Variable 3.5 mph - N/A   Partly Cloudy
10:20 AM 42.8 °F 41.1 °F 37.4 °F 81% 29.03 in 6.2 mi Variable 3.5 mph - N/A   Scattered Clouds
10:50 AM 44.6 °F 40.7 °F 37.4 °F 76% 29.06 in 6.2 mi WNW 6.9 mph - N/A   Scattered Clouds
11:20 AM 46.4 °F 42.4 °F 39.2 °F 76% 29.06 in 6.2 mi NW 8.1 mph - N/A   Scattered Clouds
11:50 AM 46.4 °F 41.5 °F 37.4 °F 71% 29.06 in 6.2 mi West 10.4 mph - N/A   Scattered Clouds
12:20 PM 46.4 °F 41.1 °F 35.6 °F 66% 29.09 in 6.2 mi WSW 11.5 mph - N/A   Scattered Clouds
12:50 PM 48.2 °F - 37.4 °F 66% 29.09 in 6.2 mi WSW 9.2 mph - N/A   Scattered Clouds
1:20 PM 46.4 °F 41.9 °F 35.6 °F 66% 29.09 in 6.2 mi West 9.2 mph - N/A   Scattered Clouds
1:50 PM 42.8 °F 35.8 °F 37.4 °F 81% 29.12 in 6.2 mi WNW 13.8 mph - N/A Rain Light Rain Showers
2:20 PM 44.6 °F 40.7 °F 37.4 °F 76% 29.12 in 6.2 mi WNW 6.9 mph - N/A   Scattered Clouds
2:50 PM 46.4 °F 42.9 °F 37.4 °F 71% 29.15 in 6.2 mi WSW 6.9 mph - N/A   Scattered Clouds
3:20 PM 46.4 °F 42.4 °F 33.8 °F 62% 29.15 in 6.2 mi West 8.1 mph - N/A   Partly Cloudy
3:50 PM 46.4 °F 41.5 °F 33.8 °F 62% 29.15 in 6.2 mi West 10.4 mph - N/A   Scattered Clouds
4:20 PM 46.4 °F 41.5 °F 35.6 °F 66% 29.18 in 6.2 mi WSW 10.4 mph - N/A   Scattered Clouds
4:50 PM 42.8 °F 36.6 °F 35.6 °F 76% 29.18 in 6.2 mi WSW 11.5 mph - N/A   Scattered Clouds
5:20 PM 42.8 °F 38.0 °F 33.8 °F 70% 29.18 in 6.2 mi WSW 8.1 mph - N/A   Scattered Clouds
5:50 PM 39.2 °F 34.2 °F 33.8 °F 81% 29.21 in 6.2 mi SW 6.9 mph - N/A   Partly Cloudy
6:20 PM 37.4 °F 32.1 °F 33.8 °F 87% 29.21 in - WSW 6.9 mph - N/A   Clear
6:50 PM 37.4 °F 32.8 °F 33.8 °F 87% 29.21 in - WSW 5.8 mph - N/A   Clear
7:20 PM 37.4 °F - 33.8 °F 87% 29.24 in - Variable 2.3 mph - N/A   Clear
7:50 PM 37.4 °F 32.8 °F 33.8 °F 87% 29.24 in - WSW 5.8 mph - N/A   Clear
8:20 PM 37.4 °F - 33.8 °F 87% 29.27 in - WNW 2.3 mph - N/A   Clear
8:50 PM 35.6 °F - 32.0 °F 87% 29.27 in 6.2 mi Calm Calm - N/A   Scattered Clouds
9:20 PM 35.6 °F - 33.8 °F 93% 29.27 in 6.2 mi Calm Calm - N/A   Partly Cloudy
9:50 PM 35.6 °F - 33.8 °F 93% 29.30 in - Variable 2.3 mph - N/A   Clear
10:20 PM 37.4 °F 33.8 °F 35.6 °F 93% 29.30 in 6.2 mi SSW 4.6 mph - N/A   Partly Cloudy
10:50 PM 37.4 °F 34.9 °F 33.8 °F 87% 29.30 in 6.2 mi Variable 3.5 mph - N/A   Partly Cloudy
11:20 PM 37.4 °F - 33.8 °F 87% 29.30 in - Variable 2.3 mph - N/A   Clear
11:50 PM 37.4 °F 34.9 °F 33.8 °F 87% 29.30 in - NE 3.5 mph - N/A   Clear